Regional Weather Roundup
Issued by NWS

Home | Current Version | Previous Version | Graphics & Text | Print | Product List | Glossary On
Versions: 1 2 3 4 5 6 7 8 9 10 11 12 13 14 15 16 17 18 19 20 21 22 23 24 25 26 27 28 29 30 31 32 33 34 35 36 37 38 39 40 41 42 43 44 45 46 47 48 49 50
000
ASUS45 KCYS 011310
RWRWY

WYOMING REGIONAL WEATHER ROUNDUP
NATIONAL WEATHER SERVICE CHEYENNE WY
700 AM MDT TUE SEP 01 2015

NOTE:  "FAIR" INDICATES FEW OR NO CLOUDS BELOW 12,000 FEET
WITH NO SIGNIFICANT WEATHER AND/OR OBSTRUCTIONS TO VISIBILITY.

WYZ001-011400-
YELLOWSTONE NATIONAL PARK

CITY           SKY/WX    TMP DP  RH WIND       PRES   REMARKS
LK YELLOWSTONE   N/A     32  29  88 NW3       30.21S
W YELLOWSTONE  NOT AVBL

$$
WYZ002>013-054>058-071-098>099-011400-
NORTHERN WYOMING

CITY           SKY/WX    TMP DP  RH WIND       PRES   REMARKS
JACKSON        FAIR      36  30  80 N6        30.15S WCI  31
CODY           FAIR      57  27  30 NW5       29.98S
GREYBULL       FAIR      51  33  50 SE3       29.94R
WORLAND        FAIR      49  30  48 CALM      29.95R
SHERIDAN       FAIR      49  41  74 SW6       29.92S
BUFFALO        FAIR      60  33  36 SW9       29.98S
GILLETTE       FAIR      61  43  51 SW8       29.94S
HULETT         FAIR      54  45  71 SW5       29.96R
NEWCASTLE      FAIR      55  43  62 E8        29.98R

$$
WYZ014>020-022>026-101>103-011400-
CENTRAL WYOMING

CITY           SKY/WX    TMP DP  RH WIND       PRES   REMARKS
BIG PINEY      FAIR      36  25  64 NW6       30.20R WCI  31
PINEDALE       FAIR      34  28  80 W3        30.21R
DUBOIS         FAIR      45  27  49 NW16      30.15S
LANDER         FAIR      54  26  34 W7        30.06R
RIVERTON       FAIR      50  30  46 NE3       30.06R
CASPER         FAIR      59  41  51 W8        30.06R
DOUGLAS        FAIR      58  42  55 SW3       30.04R

$$
WYZ021-027>030-104>119-011400-
SOUTHERN WYOMING

CITY           SKY/WX    TMP DP  RH WIND       PRES   REMARKS
EVANSTON       FAIR      56  39  53 S6        30.18R
KEMMERER       FAIR      43  32  65 N10       30.19S
FORT BRIDGER   SUNNY     57  37  47 SW3       30.20S
ROCK SPRINGS   FAIR      53  41  63 S6        30.18R
DIXON          FAIR      49  43  79 CALM      30.24R
RAWLINS        FAIR      50  40  68 E9        30.19S
SARATOGA       FAIR      52  43  71 SE12G17   30.23S
LARAMIE        FAIR      46  40  79 S10       30.22S
CHEYENNE       FAIR      54  43  66 W10       30.13S
TORRINGTON     FAIR      52  47  83 CALM      29.99F
PINE BLUFFS    FAIR      46  45  93 S5        30.09R

$$



USA.gov is the U.S. government's official web portal to all federal, state and local government web resources and services.